Location: Baller�as
(41.9020°N, 0.1554°W)
Time: 00:54:51
(UTC+00:00)

Cosmos 1633 Rocket - Pass Details

Date: 10 August 2020
Orbit: 606 x 624 km, 82.5° (Epoch: 22 September)

Event Time Altitude Azimuth Distance (km) Brightness Sun altitude
Exits shadow 19:48:50 - 139° (SE) 2,143 5.2 -7.8°
Reaches altitude 10° 19:49:20 10° 135° (SE) 1,993 5.0 -7.9°
Maximum altitude 19:52:36 21° 87° (E) 1,425 4.4 -8.4°
Drops below altitude 10° 19:55:53 10° 39° (NE) 2,002 5.6 -9.0°
Sets 19:58:33 0° 24° (NNE) 2,911 6.6 -9.4°
